Weather History for KLWC - September, 2013

Change the Weather History Date:

Thursday, September 26, 2013

  Actual Average Record
Temperature  
Mean Temperature 74 °F 64 °F  
Max Temperature 89 °F 77 °F 89 °F (2013)
Min Temperature 58 °F 51 °F 35 °F (2000)
Degree Days  
Heating Degree Days 0 4  
Month to date heating degree days 10 40  
Since 1 July heating degree days 10 43  
Cooling Degree Days 9 3  
Month to date cooling degree days 222 143  
Year to date cooling degree days 1443 1334  
Growing Degree Days 24 (Base 50)    
Moisture  
Dew Point 59 °F    
Average Humidity 64    
Maximum Humidity 93    
Minimum Humidity 34    
Precipitation  
Precipitation 0.00 in 0.13 in 0.17 in (2012)
Month to date precipitation 2.94 3.66  
Year to date precipitation 23.22 31.52  
Sea Level Pressure  
Sea Level Pressure 29.84 in    
Wind  
Wind Speed 12 mph (SE)    
Max Wind Speed 22 mph    
Max Gust Speed 30 mph    
Visibility 10 miles    
Events      
T = Trace of Precipitation, MM = Missing Value Source: NWS Daily Summary

Daily Weather History Graph

Daily Weather History Graph

Search for Another Location

Airport or City:

Trip Planner

Search our weather history database for the weather conditions in past years. The results will help you decide how hot, cold, wet, or windy it might be!

Date:

Astronomy

Sep. 26, 2013 Rise Set
Actual Time 7:12 AM CDT 7:11 PM CDT
Civil Twilight 6:45 AM CDT 7:37 PM CDT
Nautical Twilight 6:14 AM CDT 8:08 PM CDT
Astronomical Twilight 5:43 AM CDT 8:39 PM CDT
Moon No Moon Rise 2:02 PM CDT (9/26)
Length of Visible Light 12h 51m
Length of Day
11h 58m
Waning Gibbous, 54% of the Moon is Illuminated
Sep 26
Waning Gibbous
Sep 26
Last Quarter
Oct 4
New
Oct 11
First Quarter
Oct 18
Full

Hourly Weather History & Observations

Time (CDT) Temp. Heat Index Dew Point Humidity Pressure Visibility Wind Dir Wind Speed Gust Speed Precip Events Conditions
12:52 AM 62.1 °F - 59.0 °F 90% 29.83 in 9.0 mi ESE 6.9 mph - N/A   Clear
1:52 AM 60.1 °F - 57.9 °F 93% 29.83 in 8.0 mi ESE 6.9 mph - N/A   Clear
2:52 AM 61.0 °F - 57.9 °F 90% 29.83 in 9.0 mi East 6.9 mph - N/A   Clear
3:52 AM 60.1 °F - 57.9 °F 93% 29.82 in 9.0 mi East 6.9 mph - N/A   Clear
4:52 AM 59.0 °F - 57.0 °F 93% 29.83 in 7.0 mi East 5.8 mph - N/A   Clear
5:52 AM 60.1 °F - 57.0 °F 90% 29.84 in 8.0 mi East 5.8 mph - N/A   Clear
6:52 AM 60.1 °F - 57.0 °F 90% 29.86 in 9.0 mi East 8.1 mph - N/A   Clear
7:52 AM 62.1 °F - 57.9 °F 86% 29.88 in 10.0 mi ESE 8.1 mph - N/A   Clear
8:52 AM 66.0 °F - 60.1 °F 81% 29.89 in 10.0 mi ESE 5.8 mph - N/A   Clear
9:52 AM 73.0 °F - 60.1 °F 64% 29.89 in 10.0 mi SSE 12.7 mph - N/A   Clear
10:52 AM 78.1 °F - 60.1 °F 54% 29.89 in 10.0 mi SSE 15.0 mph - N/A   Clear
11:52 AM 82.9 °F 82.8 °F 59.0 °F 44% 29.87 in 10.0 mi SE 18.4 mph 26.5 mph N/A   Clear
12:52 PM 84.9 °F 83.9 °F 57.0 °F 38% 29.86 in 10.0 mi SSE 19.6 mph 28.8 mph N/A   Clear
1:52 PM 87.1 °F 86.1 °F 57.9 °F 37% 29.83 in 10.0 mi SSE 17.3 mph 25.3 mph N/A   Clear
2:52 PM 88.0 °F 86.9 °F 57.9 °F 36% 29.81 in 10.0 mi SE 20.7 mph 26.5 mph N/A   Clear
3:52 PM 89.1 °F 88.0 °F 57.9 °F 35% 29.81 in 10.0 mi SSE 17.3 mph 25.3 mph N/A   Clear
4:52 PM 89.1 °F 88.0 °F 57.9 °F 35% 29.81 in 10.0 mi SE 15.0 mph 24.2 mph N/A   Clear
5:52 PM 86.0 °F 85.0 °F 57.9 °F 38% 29.81 in 10.0 mi SE 18.4 mph 23.0 mph N/A   Clear
6:52 PM 82.0 °F 82.1 °F 59.0 °F 45% 29.82 in 10.0 mi SE 10.4 mph - N/A   Clear
7:52 PM 78.1 °F - 60.1 °F 54% 29.82 in 10.0 mi SE 11.5 mph - N/A   Clear
8:52 PM 75.9 °F - 60.1 °F 58% 29.84 in 10.0 mi SE 12.7 mph - N/A   Clear
9:52 PM 72.0 °F - 60.1 °F 66% 29.86 in 10.0 mi SE 6.9 mph - N/A   Clear
10:52 PM 72.0 °F - 60.1 °F 66% 29.86 in 10.0 mi SE 9.2 mph - N/A   Clear
11:52 PM 72.0 °F - 61.0 °F 68% 29.86 in 10.0 mi SE 9.2 mph - N/A   Clear